Location: Windsor
(43.2292°N, 89.3015°W)
Time: 19:18:56
(UTC+00:00)

RS-44 - Pass Details

Date: 07 July 2022
Orbit: 1175 x 1510 km, 82.5° (Epoch: 16 August)

Event Time Altitude Azimuth Distance (km) Brightness Sun altitude
Rises 03:07:36 0° 223° (SW) 4,405 ? -12.9°
Reaches altitude 10° 03:10:46 10° 233° (SW) 3,482 ? -13.3°
Maximum altitude 03:18:02 32° 293° (WNW) 2,319 ? -14.1°
Drops below altitude 10° 03:25:40 10° 353° (N) 3,659 ? -15.0°
Sets 03:29:07 0° 4° (N) 4,659 ? -15.4°
